Weather History for KCFE - January, 2014

Change the Weather History Date:

Friday, January 31, 2014

  Actual Average (KSTC) Record (KSTC)
Temperature  
Mean Temperature -5 °F 13 °F  
Max Temperature 6 °F 23 °F 46 °F (1993)
Min Temperature -16 °F 2 °F -36 °F (1996)
Degree Days  
Heating Degree Days 70 52  
Month to date heating degree days 1657  
Since 1 July heating degree days 5102  
Cooling Degree Days 0 0  
Month to date cooling degree days 0  
Year to date cooling degree days 0  
Moisture  
Dew Point -11 °F    
Average Humidity 73    
Maximum Humidity 83    
Minimum Humidity 59    
Precipitation  
Precipitation 0.00 in 0.02 in 1.00 in (1917)
Month to date precipitation 0.65  
Year to date precipitation 0.65  
Snow  
Snow 0.00 in 0.20 in 10.00 in (1917)
Month to date snowfall 8.6  
Since 1 July snowfall 27.2  
Snow Depth -    
Sea Level Pressure  
Sea Level Pressure 30.06 in    
Wind  
Wind Speed 3 mph (South)    
Max Wind Speed 8 mph    
Max Gust Speed -    
Visibility 10 miles    
Events      
T = Trace of Precipitation, MM = Missing Value Source: NWS Daily Summary

Daily Weather History Graph

Daily Weather History Graph

Search for Another Location

Airport or City:

Trip Planner

Search our weather history database for the weather conditions in past years. The results will help you decide how hot, cold, wet, or windy it might be!

Date:

Astronomy

Jan. 31, 2014 Rise Set
Actual Time 7:36 AM CST 5:21 PM CST
Civil Twilight 7:05 AM CST 5:53 PM CST
Nautical Twilight 6:29 AM CST 6:28 PM CST
Astronomical Twilight 5:55 AM CST 7:02 PM CST
Moon 7:42 AM CST (1/31) 6:52 PM CST (1/31)
Length of Visible Light 10h 47m
Length of Day
9h 44m
New Moon, 1% of the Moon is Illuminated
Jan 31
New Moon
Feb 6
First Quarter
Feb 14
Full
Feb 22
Last Quarter
Mar 1
New

Hourly Weather History & Observations

Time (CST) Temp. Windchill Dew Point Humidity Pressure Visibility Wind Dir Wind Speed Gust Speed Precip Events Conditions
12:15 AM -9.2 °F - -14.8 °F 76% 30.06 in 10.0 mi Calm Calm - N/A   Clear
12:35 AM -11.7 °F -21.3 °F -16.8 °F 78% 30.06 in 10.0 mi SSW 3.5 mph - N/A   Clear
12:56 AM -10.1 °F - -14.8 °F 80% 30.06 in 10.0 mi Calm Calm - N/A   Clear
1:15 AM -11.4 °F -20.8 °F -15.9 °F 80% 30.07 in 10.0 mi SSW 3.5 mph - N/A   Clear
1:35 AM -9.9 °F -21.5 °F -14.4 °F 81% 30.05 in 10.0 mi West 4.6 mph - N/A   Clear
1:56 AM -10.7 °F -20.0 °F -15.3 °F 80% 30.06 in 10.0 mi SW 3.5 mph - N/A   Clear
2:15 AM -11.2 °F -20.6 °F -15.5 °F 81% 30.06 in 10.0 mi WSW 3.5 mph - N/A   Clear
2:35 AM -13.4 °F -23.1 °F -18.2 °F 79% 30.08 in 10.0 mi SW 3.5 mph - N/A   Clear
2:56 AM -14.1 °F - -19.1 °F 78% 30.08 in 10.0 mi Calm Calm - N/A   Clear
3:15 AM -12.8 °F -22.5 °F -17.9 °F 78% 30.09 in 10.0 mi SW 3.5 mph - N/A   Clear
3:36 AM -13.4 °F -23.1 °F -18.0 °F 80% 30.08 in 10.0 mi WSW 3.5 mph - N/A   Clear
3:56 AM -13.7 °F - -18.8 °F 78% 30.09 in 10.0 mi Calm Calm - N/A   Clear
4:15 AM -14.8 °F - -19.7 °F 79% 30.08 in 10.0 mi Calm Calm - N/A   Clear
4:36 AM -13.5 °F - -18.8 °F 77% 30.08 in 10.0 mi Calm Calm - N/A   Clear
4:56 AM -13.9 °F - -19.3 °F 77% 30.08 in 10.0 mi Calm Calm - N/A   Clear
5:15 AM -13.5 °F - -18.6 °F 78% 30.07 in 10.0 mi Calm Calm - N/A   Clear
5:36 AM -13.7 °F - -18.8 °F 78% 30.06 in 10.0 mi Calm Calm - N/A   Clear
5:56 AM -14.3 °F - -19.5 °F 77% 30.07 in 10.0 mi Calm Calm - N/A   Clear
6:15 AM -16.4 °F - -21.5 °F 78% 30.08 in 10.0 mi Calm Calm - N/A   Clear
6:36 AM -14.6 °F - -19.5 °F 79% 30.09 in 10.0 mi Calm Calm - N/A   Clear
6:56 AM -15.7 °F - -20.7 °F 78% 30.09 in 10.0 mi Calm Calm - N/A   Clear
7:15 AM -14.1 °F - -18.9 °F 79% 30.09 in 2.0 mi Calm Calm - N/A   Haze
7:36 AM -14.8 °F - -19.7 °F 79% 30.10 in 10.0 mi Calm Calm - N/A   Clear
7:56 AM -13.9 °F - -18.8 °F 79% 30.10 in 10.0 mi Calm Calm - N/A   Clear
8:15 AM -13.0 °F - -18.0 °F 78% 30.09 in 10.0 mi Calm Calm - N/A   Clear
8:36 AM -13.4 °F - -18.4 °F 78% 30.09 in 10.0 mi Calm Calm - N/A   Clear
8:55 AM -12.3 °F - -16.8 °F 80% 30.09 in 10.0 mi Calm Calm - N/A   Clear
9:15 AM -9.6 °F - -14.3 °F 80% 30.09 in 10.0 mi Calm Calm - N/A   Clear
9:36 AM -9.2 °F - -13.7 °F 81% 30.10 in 10.0 mi Calm Calm - N/A   Clear
9:55 AM -7.6 °F -16.5 °F -11.6 °F 83% 30.11 in 10.0 mi South 3.5 mph - N/A   Clear
10:15 AM -6.3 °F -17.3 °F -10.3 °F 83% 30.12 in 10.0 mi South 4.6 mph - N/A   Clear
10:36 AM -4.4 °F -16.7 °F -8.5 °F 82% 30.14 in 10.0 mi South 5.8 mph - N/A   Clear
10:55 AM -2.7 °F -13.1 °F -7.6 °F 80% 30.14 in 10.0 mi South 4.6 mph - N/A   Clear
11:15 AM -0.9 °F -11.0 °F -8.9 °F 69% 30.14 in 10.0 mi SSW 4.6 mph - N/A   Clear
11:36 AM -0.0 °F -14.2 °F -9.6 °F 64% 30.14 in 10.0 mi SSW 8.1 mph - N/A   Clear
11:55 AM 0.5 °F -12.3 °F -9.4 °F 63% 30.13 in 10.0 mi SSW 6.9 mph - N/A   Clear
12:15 PM 1.0 °F -11.7 °F -9.2 °F 62% 30.12 in 10.0 mi SSW 6.9 mph - N/A   Clear
12:36 PM 1.9 °F -11.8 °F -9.0 °F 60% 30.11 in 10.0 mi SSW 8.1 mph - N/A   Clear
12:55 PM 3.0 °F -8.0 °F -8.3 °F 59% 30.10 in 10.0 mi SSW 5.8 mph - N/A   Clear
1:15 PM 3.7 °F -8.4 °F -7.8 °F 59% 30.09 in 10.0 mi SSW 6.9 mph - N/A   Clear
1:36 PM 4.5 °F -8.7 °F -6.9 °F 59% 30.09 in 10.0 mi SSW 8.1 mph - N/A   Clear
1:55 PM 4.5 °F -7.6 °F -6.9 °F 59% 30.09 in 10.0 mi SSW 6.9 mph - N/A   Clear
2:15 PM 4.6 °F -6.0 °F -6.7 °F 59% 30.08 in 10.0 mi South 5.8 mph - N/A   Clear
2:36 PM 5.0 °F -4.1 °F -6.2 °F 60% 30.06 in 10.0 mi South 4.6 mph - N/A   Clear
2:55 PM 5.7 °F -6.1 °F -5.8 °F 59% 30.06 in 10.0 mi South 6.9 mph - N/A   Clear
3:15 PM 5.9 °F -4.5 °F -5.3 °F 60% 30.06 in 10.0 mi South 5.8 mph - N/A   Clear
3:36 PM 6.3 °F -4.1 °F -5.1 °F 60% 30.05 in 10.0 mi South 5.8 mph - N/A   Clear
3:55 PM 6.3 °F -4.1 °F -4.7 °F 61% 30.05 in 10.0 mi South 5.8 mph - N/A   Clear
4:15 PM 6.3 °F -5.4 °F -4.5 °F 61% 30.05 in 10.0 mi South 6.9 mph - N/A   Clear
4:36 PM 5.9 °F -3.0 °F -4.4 °F 63% 30.04 in 10.0 mi South 4.6 mph - N/A   Clear
4:55 PM 5.5 °F -6.3 °F -4.7 °F 63% 30.03 in 10.0 mi South 6.9 mph - N/A   Clear
5:15 PM 5.0 °F -4.1 °F -4.9 °F 64% 30.02 in 10.0 mi South 4.6 mph - N/A   Clear
5:36 PM 4.1 °F -5.1 °F -5.1 °F 66% 30.02 in 10.0 mi South 4.6 mph - N/A   Clear
5:55 PM 3.9 °F -6.9 °F -5.3 °F 66% 30.02 in 10.0 mi South 5.8 mph - N/A   Clear
6:16 PM 3.2 °F -6.2 °F -5.4 °F 67% 30.01 in 10.0 mi South 4.6 mph - N/A   Clear
6:36 PM 3.0 °F - -5.8 °F 67% 30.02 in 10.0 mi Calm Calm - N/A   Clear
6:55 PM 2.3 °F -7.2 °F -6.0 °F 68% 30.01 in 10.0 mi SSE 4.6 mph - N/A   Clear
7:16 PM 1.4 °F - -6.3 °F 70% 30.01 in 10.0 mi Calm Calm - N/A   Clear
7:36 PM 0.9 °F - -6.2 °F 72% 30.01 in 10.0 mi Calm Calm - N/A   Clear
7:55 PM 0.5 °F - -6.7 °F 72% 30.00 in 10.0 mi Calm Calm - N/A   Clear
8:16 PM 1.0 °F -6.7 °F -6.0 °F 72% 30.01 in 10.0 mi SSE 3.5 mph - N/A   Clear
8:35 PM 0.7 °F - -5.8 °F 74% 30.00 in 10.0 mi Calm Calm - N/A   Clear
8:55 PM 0.5 °F - -5.8 °F 75% 30.01 in 10.0 mi Calm Calm - N/A   Clear
9:15 PM 1.2 °F -11.5 °F -5.1 °F 75% 30.00 in 10.0 mi South 6.9 mph - N/A   Clear
9:35 PM 1.9 °F -10.6 °F -4.4 °F 75% 29.99 in 10.0 mi South 6.9 mph - N/A   Clear
9:56 PM 1.9 °F -9.2 °F -4.4 °F 75% 29.99 in 10.0 mi South 5.8 mph - N/A   Clear
10:15 PM 2.1 °F -10.4 °F -3.8 °F 76% 29.99 in 10.0 mi South 6.9 mph - N/A   Scattered Clouds
10:36 PM 2.3 °F -8.8 °F -4.0 °F 75% 29.98 in 10.0 mi South 5.8 mph - N/A   Scattered Clouds
10:56 PM 1.9 °F - -4.0 °F 76% 29.98 in 10.0 mi Calm Calm - N/A   Clear
11:15 PM 2.1 °F -7.4 °F -3.6 °F 77% 29.99 in 10.0 mi South 4.6 mph - N/A   Clear
11:36 PM 1.9 °F -7.6 °F -3.6 °F 77% 29.99 in 10.0 mi South 4.6 mph - N/A   Clear
11:56 PM 2.3 °F -8.8 °F -3.1 °F 78% 29.99 in 10.0 mi South 5.8 mph - N/A   Clear